Temperature
16 16 16 16 16 15 15 15 15 15 14 14 14 14 14 14 14 13 13 13 13 13 13 13 13 13 13 13 13 13 13 13 12 12 12 12 12 12 11 11 11 11 11
16 16 15 15 15 15 15 15 14 14 14 14 14 14 14 14 13 13 13 13 13 13 12 12 12 12 12 12 12 12 12 12 12 12 12 12 11 11 11 11 11 11 11
16 15 15 15 15 15 14 14 14 14 14 14 14 14 14 13 13 13 13 13 13 13 12 12 12 12 12 12 12 12 12 12 12 12 11 11 11 11 11 11 11 11 11
15 15 15 15 14 14 14 14 14 14 14 13 13 13 13 13 13 13 13 13 13 12 12 12 12 12 12 12 12 12 11 11 11 11 11 11 11 11 11 11 10 10 10
15 15 14 14 14 14 14 14 13 13 13 13 13 13 13 13 13 13 13 13 12 12 12 12 12 12 12 12 12 11 11 11 11 11 11 11 11 10 10 10 10 10 10
14 14 14 14 14 14 13 13 13 13 13 13 13 12 13 12 12 13 13 12 12 12 12 12 12 12 12 12 12 11 11 11 11 11 11 10 10 10 10 10 10 10 10
14 14 13 13 13 13 13 13 13 12 12 12 12 12 12 12 12 12 12 12 12 12 12 12 12 12 12 11 11 11 11 11 11 11 11 11 10 10 10 10 10 10 10
14 13 13 13 13 13 12 12 12 12 12 12 12 12 12 12 12 12 12 12 12 12 11 11 11 11 11 11 11 11 11 11 11 11 11 10 10 10 10 10 10 9 9
13 13 13 13 12 12 12 12 12 11 11 11 11 11 11 11 11 12 11 11 11 11 11 11 11 11 11 11 11 11 11 11 10 10 10 10 10 10 10 10 9 9 9
13 12 12 12 12 12 12 11 11 11 11 11 11 11 11 11 11 11 11 11 11 11 10 11 11 11 11 11 10 10 10 10 10 10 10 10 10 10 10 9 9 9 9
12 12 12 12 11 11 11 11 11 11 10 10 10 10 11 11 11 11 11 10 10 10 10 10 10 10 10 10 10 10 10 10 10 10 10 10 9 9 9 9 9 9 9
12 11 11 11 11 11 11 11 10 10 10 10 10 10 10 10 10 10 10 10 10 10 10 10 10 10 10 10 10 10 9 9 9 9 9 9 9 9 9 9 9 9 9
11 11 11 11 11 11 10 10 10 10 10 10 9 9 9 10 10 10 10 10 9 9 9 9 9 9 9 9 9 9 9 9 9 9 9 8 8 8 8 8 8 8 8
11 11 10 10 10 10 10 10 10 10 9 9 9 9 9 9 9 9 9 9 9 9 9 9 9 9 9 9 9 9 8 8 8 8 8 8 8 8 8 8 8 8 8
11 10 10 9 9 9 9 9 9 9 9 9 9 9 9 9 9 9 9 9 9 8 8 8 8 8 8 8 8 8 8 8 7 7 7 7 7 7 7 7 7 7 7
10 10 9 9 9 9 9 9 8 8 9 8 9 8 8 8 8 8 8 8 8 8 8 7 7 7 7 7 7 7 7 7 7 6 6 7 7 6 6 6 6 6 6
10 9 9 9 8 8 8 8 8 8 8 8 8 8 8 8 8 8 8 8 7 7 7 7 7 7 6 6 7 7 6 6 6 6 6 6 6 6 6 6 6 6 6
9 9 9 8 8 8 8 7 7 7 7 7 7 7 7 7 7 7 7 7 7 7 6 6 6 6 6 6 6 6 6 6 6 5 5 5 5 5 5 5 5 5 5
8 8 8 8 8 7 7 7 7 7 7 7 6 7 7 6 6 6 6 6 6 6 6 6 6 6 5 5 5 5 5 5 5 5 5 5 5 5 5 5 5 5 5
8 8 8 7 7 7 7 7 7 6 6 6 6 6 6 6 6 6 6 6 5 5 5 5 5 5 5 5 5 5 5 5 4 4 4 4 4 4 4 4 4 4 4
7 7 7 7 7 7 7 6 6 6 6 6 6 6 6 5 5 5 5 5 5 5 5 5 5 4 4 4 4 4 4 4 4 4 4 4 4 3 3 4 4 4 4
6 6 7 6 6 6 6 6 6 6 5 5 5 5 5 5 5 5 5 5 4 4 4 4 4 4 4 4 4 4 4 4 4 4 3 3 3 3 3 3 3 3 3
6 6 6 6 6 6 6 5 5 5 5 5 5 5 4 4 4 4 4 4 4 4 4 4 4 4 4 3 3 3 3 3 3 3 3 3 3 2 2 2 2 2 2
5 5 5 5 5 5 5 5 5 5 5 5 4 4 4 4 4 4 3 3 3 3 3 3 3 3 3 3 3 3 3 3 3 3 3 3 2 2 2 2 2 2 2
5 5 4 4 4 5 5 5 5 4 4 4 4 4 4 3 3 3 3 3 3 3 3 3 3 3 3 3 3 3 3 3 3 2 2 2 2 2 2 2 2 1 2
4 4 4 4 4 4 4 4 4 4 4 4 3 3 3 3 3 3 3 3 3 3 3 3 3 3 2 2 2 2 2 2 2 2 2 2 2 2 1 1 1 1 1
Wind_Speed
4 3 3 3 2 2 3 3 3 3 3 3 3 3 3 3 3 3 3 3 3 2 2 2 2 1 1 1 0 0 0 1 1 1 0 1 2 2 2 3 4 4 4
3 3 3 3 3 2 2 2 2 2 2 2 3 3 3 3 3 3 4 4 4 3 3 2 3 2 2 2 2 1 1 1 2 1 1 0 1 2 2 2 2 3 3
3 3 2 3 3 3 3 2 2 2 2 2 2 2 3 2 2 3 4 4 4 4 3 3 3 3 2 2 2 2 1 1 1 2 1 1 1 1 1 1 1 1 2
2 2 2 3 2 2 2 2 2 2 2 3 2 2 2 3 2 2 2 3 4 3 3 3 3 3 3 3 2 2 1 1 1 1 2 1 1 1 1 1 1 1 2
3 2 2 2 2 2 2 2 2 2 2 2 2 2 2 2 1 1 2 3 3 3 3 3 3 3 3 3 2 1 1 2 2 2 2 1 1 1 1 1 1 2 2
3 3 2 2 2 2 2 2 2 2 2 1 1 1 1 1 0 0 1 2 2 3 3 3 3 4 4 4 3 3 3 3 3 2 2 3 3 2 2 2 1 1 2
3 3 2 2 2 2 2 1 2 2 1 1 1 2 2 1 1 1 1 2 2 2 2 2 2 2 3 3 4 4 4 5 5 4 3 4 3 3 3 2 2 2 3
3 3 3 3 2 2 2 2 2 2 2 2 2 1 1 2 2 0 1 2 3 3 3 3 2 2 2 2 2 3 3 3 4 3 3 4 4 3 4 4 4 3 2
3 3 2 2 2 2 3 2 2 2 2 2 2 2 1 1 2 1 1 2 2 3 2 1 1 2 2 2 2 2 1 1 2 2 3 3 3 4 3 1 1 1 2
3 2 2 2 3 3 3 3 2 2 3 2 2 2 2 2 2 2 2 2 3 2 1 1 1 1 1 3 2 2 2 1 1 1 1 1 2 3 4 4 3 2 1
2 2 2 2 3 3 3 3 2 3 3 2 2 2 2 2 3 3 3 2 2 2 1 1 0 1 2 2 2 2 2 1 2 1 1 1 1 1 1 2 2 3 2
1 1 1 2 2 2 2 2 2 2 3 2 2 2 1 2 3 3 3 2 0 1 1 1 1 1 1 1 2 2 1 0 0 1 0 1 1 1 1 1 2 2 2
2 1 1 1 1 2 2 2 2 2 2 2 2 2 2 1 2 3 3 2 1 1 0 1 1 2 2 2 3 2 1 1 1 1 1 1 1 1 0 0 1 0 1
2 2 1 1 1 1 1 2 2 2 3 3 3 3 2 1 1 1 1 2 2 2 1 1 1 2 2 2 2 1 1 2 2 2 1 1 1 0 0 0 0 0 0
1 2 1 1 1 1 0 1 2 2 3 3 3 3 3 3 2 3 2 2 3 2 1 1 1 1 1 1 1 1 1 1 1 1 1 1 0 0 1 1 1 1 1
1 1 1 1 1 1 1 0 0 2 2 3 2 2 1 2 3 3 3 3 3 3 2 2 2 2 2 2 2 2 1 1 1 1 1 1 1 1 1 1 1 1 1
1 1 1 1 1 1 2 2 1 0 1 1 2 3 2 2 4 4 3 3 3 4 2 2 2 2 2 2 2 2 2 2 1 1 1 1 2 1 1 1 1 1 1
1 1 1 1 1 1 2 2 2 3 2 0 1 3 4 4 4 3 3 3 2 2 2 2 3 2 2 3 2 2 1 1 1 1 1 1 1 1 2 2 2 2 2
1 1 1 0 1 1 1 1 2 2 2 1 1 1 3 3 3 3 3 2 2 3 3 3 3 2 2 3 3 2 2 2 2 1 1 1 1 1 1 2 2 2 1
1 1 1 1 1 1 1 1 1 2 2 2 1 1 1 1 1 1 2 2 2 2 3 3 3 3 2 2 2 2 2 2 2 2 2 2 1 1 2 2 2 2 2
1 1 1 1 1 1 1 1 1 2 2 2 2 2 3 2 3 3 3 3 2 2 2 2 2 2 2 2 2 2 3 3 3 3 2 2 2 1 2 2 2 2 2
1 1 1 1 1 1 1 1 1 2 2 2 2 2 4 2 2 2 2 2 2 2 2 2 2 2 3 3 3 3 3 3 3 2 2 2 2 2 2 2 2 2 2
1 1 1 1 1 2 2 2 2 2 2 2 2 2 2 2 1 1 1 1 1 1 1 1 2 2 2 2 2 2 3 2 2 2 3 3 2 2 2 2 2 2 2
1 2 2 2 1 2 2 2 2 1 1 1 2 2 2 1 1 1 1 1 1 1 1 1 2 2 2 2 2 2 2 1 1 2 2 2 2 2 2 2 2 3 3
1 2 2 2 2 1 1 1 1 1 1 1 1 1 1 1 1 1 1 1 1 1 2 2 2 2 3 2 2 2 2 2 2 2 2 3 3 3 3 3 3 3 3
2 2 1 2 2 1 1 1 1 1 1 1 1 1 1 1 1 1 1 1 1 2 2 2 2 2 3 3 3 4 4 4 3 4 3 3 3 3 3 3 3 3 3
Wind_Direction
182 189 187 187 199 207 210 217 215 216 207 194 196 199 202 196 191 185 198 216 222 234 234 208 216 207 176 191 160 93 108 119 172 277 316 138 122 129 128 174 172 166 191
187 193 185 195 196 206 227 227 214 219 227 218 207 199 203 203 195 187 202 211 218 224 222 211 216 199 194 191 172 195 207 193 174 204 256 176 170 159 157 183 195 200 199
179 196 198 203 199 204 217 234 237 227 223 227 223 210 199 193 203 215 207 210 219 218 206 205 215 190 204 205 189 194 209 206 168 176 225 232 220 183 171 219 239 223 235
175 196 212 216 204 217 216 215 229 228 220 230 232 214 203 193 209 220 211 218 221 213 199 202 213 196 200 197 197 194 193 182 179 179 190 212 224 216 158 207 270 275 274
181 205 223 225 203 202 204 209 224 228 234 224 232 205 196 195 220 228 229 233 219 212 211 208 204 195 182 174 173 179 180 194 188 182 190 208 224 183 207 223 237 258 268
193 213 221 225 194 196 216 204 210 220 232 210 225 202 196 231 257 230 294 257 236 221 222 217 202 182 184 186 192 195 191 196 197 193 201 203 210 205 205 221 222 229 268
199 210 207 214 199 199 227 219 214 205 211 225 209 170 165 183 213 238 257 256 253 251 241 224 222 183 170 191 203 204 213 218 211 201 206 211 205 202 196 216 230 222 240
200 206 205 202 204 204 208 213 224 232 206 217 236 207 183 180 156 188 271 245 254 250 236 225 205 190 190 171 184 194 210 213 213 210 213 215 204 196 197 210 223 232 251
196 203 204 203 203 206 210 215 228 227 217 213 215 222 215 190 178 187 210 245 253 249 244 221 180 172 164 139 156 186 201 260 258 221 221 224 217 212 203 189 218 195 260
193 202 205 205 210 213 211 216 226 215 214 217 215 207 199 195 193 190 200 230 247 249 231 146 115 138 135 143 166 180 210 249 297 311 292 273 241 222 214 194 194 207 223
187 202 201 204 213 217 215 212 213 214 209 217 223 214 198 185 186 189 190 218 223 232 214 185 142 95 106 142 156 181 219 249 243 249 241 239 239 206 207 206 196 195 206
156 185 202 214 222 222 204 219 219 213 206 213 233 233 217 191 181 199 197 206 316 242 237 196 182 136 141 165 189 222 215 119 225 213 205 245 237 234 240 235 248 237 211
147 189 209 216 212 198 196 200 210 217 216 218 223 226 218 186 182 189 197 206 220 227 285 97 131 156 147 191 211 219 209 161 161 192 217 239 238 245 234 283 322 320 314
168 183 196 210 218 196 191 195 201 220 223 218 218 223 224 201 163 179 193 194 191 205 237 198 153 192 205 213 217 217 194 180 179 207 217 234 250 11 6 310 262 240 272
196 183 195 200 198 163 142 222 214 221 218 214 218 213 201 207 204 177 183 195 186 186 184 174 177 170 195 213 195 196 181 174 194 217 201 208 226 204 237 230 213 213 226
220 190 176 171 176 166 166 360 347 200 179 175 174 176 202 178 155 147 150 161 166 167 162 189 201 196 196 204 197 197 196 193 213 211 211 211 217 221 239 257 231 211 220
229 192 178 186 198 211 210 201 202 97 86 117 161 168 173 164 159 157 159 173 179 168 180 203 204 203 205 207 203 197 205 205 193 210 233 229 222 224 219 231 235 234 239
288 223 193 195 208 227 231 223 195 181 173 238 239 187 176 166 157 164 151 129 166 177 193 208 213 213 210 204 202 197 195 194 195 211 225 235 231 234 229 228 229 230 237
306 265 196 184 230 244 222 218 186 172 164 150 110 191 190 181 169 163 152 168 197 203 203 209 212 215 219 209 204 196 190 196 207 207 211 224 237 247 249 239 232 237 247
319 276 224 190 226 229 210 194 166 154 153 160 178 190 159 142 159 187 206 219 221 226 217 209 206 212 215 207 201 196 202 207 208 214 220 220 230 241 247 251 241 229 240
331 260 253 245 241 245 234 208 189 171 173 183 190 177 160 182 199 211 214 221 225 229 226 215 207 206 209 207 207 211 210 215 208 206 209 215 220 240 256 250 247 243 249
311 262 233 237 246 260 266 242 210 195 191 194 181 172 177 182 201 209 216 221 227 225 212 202 208 210 206 208 212 220 224 225 215 201 206 217 224 230 236 250 250 253 251
309 299 294 260 254 255 260 239 216 198 192 186 171 165 175 203 220 216 217 209 216 233 218 185 195 213 218 219 224 215 217 217 218 210 207 219 227 229 230 243 259 264 261
327 304 290 287 261 248 254 231 205 192 182 175 175 180 181 195 229 237 236 221 216 228 227 208 206 221 226 228 240 232 220 242 255 226 213 223 231 235 236 238 242 253 256
286 279 284 284 271 255 260 244 193 179 178 179 185 182 177 176 209 239 241 225 233 237 247 237 229 232 231 236 239 239 239 241 249 253 241 229 235 237 241 242 243 252 260
298 282 274 275 273 268 263 247 201 181 179 178 177 182 182 187 199 219 235 242 253 247 247 241 238 244 245 243 247 243 238 242 249 253 244 232 234 236 237 240 243 240 243
Height
1510 1512 1513 1514 1514 1515 1516 1517 1517 1518 1519 1519 1519 1520 1520 1521 1522 1522 1523 1524 1524 1525 1526 1526 1526 1527 1527 1528 1528 1529 1530 1530 1530 1531 1532 1532 1532 1532 1532 1531 1531 1531 1530
1508 1509 1510 1511 1511 1512 1513 1514 1514 1515 1515 1516 1516 1517 1517 1518 1519 1519 1520 1520 1521 1522 1523 1523 1524 1524 1524 1525 1526 1526 1527 1528 1529 1529 1529 1530 1530 1530 1530 1530 1529 1529 1528
1505 1506 1506 1507 1508 1508 1509 1510 1511 1511 1512 1512 1513 1513 1514 1515 1516 1516 1517 1517 1518 1519 1519 1520 1521 1521 1522 1522 1523 1524 1524 1525 1526 1527 1527 1527 1528 1528 1528 1527 1527 1527 1526
1501 1502 1503 1504 1505 1505 1506 1506 1507 1508 1508 1509 1510 1510 1510 1511 1512 1513 1513 1514 1515 1516 1516 1517 1517 1518 1519 1519 1520 1521 1521 1522 1523 1524 1524 1524 1525 1525 1525 1525 1524 1524 1524
1498 1499 1500 1501 1501 1502 1502 1503 1503 1504 1505 1505 1506 1506 1507 1507 1508 1509 1510 1510 1511 1512 1513 1513 1514 1514 1515 1516 1517 1517 1518 1519 1520 1521 1521 1521 1522 1522 1522 1522 1522 1522 1521
1495 1496 1497 1497 1498 1498 1499 1500 1500 1500 1501 1502 1502 1502 1503 1504 1505 1505 1506 1507 1507 1508 1509 1510 1510 1511 1512 1512 1513 1514 1515 1516 1517 1517 1517 1518 1518 1519 1519 1519 1519 1519 1518
1492 1493 1493 1494 1494 1495 1496 1496 1497 1497 1498 1498 1498 1499 1499 1500 1501 1502 1502 1503 1504 1504 1505 1506 1507 1507 1508 1509 1510 1511 1512 1513 1514 1514 1514 1514 1514 1515 1516 1516 1516 1516 1515
1489 1490 1491 1491 1491 1492 1492 1493 1493 1494 1494 1494 1495 1496 1496 1497 1497 1498 1499 1499 1500 1501 1502 1503 1503 1504 1504 1505 1506 1507 1507 1508 1510 1510 1511 1511 1511 1512 1512 1513 1513 1513 1513
1486 1486 1487 1488 1488 1488 1489 1489 1490 1490 1491 1491 1492 1492 1493 1493 1494 1494 1495 1495 1496 1497 1498 1498 1499 1500 1501 1502 1502 1503 1504 1504 1506 1507 1507 1507 1508 1508 1509 1509 1509 1509 1509
1482 1483 1484 1484 1484 1484 1485 1486 1486 1487 1487 1488 1488 1489 1489 1490 1490 1491 1491 1491 1492 1493 1493 1494 1495 1496 1497 1498 1498 1499 1500 1500 1502 1502 1503 1503 1504 1504 1505 1505 1505 1506 1505
1479 1480 1480 1481 1481 1481 1481 1482 1483 1483 1484 1484 1484 1485 1485 1486 1487 1487 1487 1487 1488 1488 1489 1490 1491 1492 1493 1494 1494 1495 1496 1497 1498 1499 1499 1500 1500 1501 1501 1502 1502 1502 1502
1476 1477 1477 1477 1477 1478 1478 1479 1479 1480 1480 1480 1480 1480 1481 1482 1483 1483 1484 1484 1484 1485 1485 1486 1487 1488 1489 1490 1491 1492 1493 1494 1494 1495 1495 1495 1496 1497 1497 1498 1498 1499 1499
1473 1473 1473 1474 1474 1474 1475 1475 1475 1476 1476 1476 1477 1476 1476 1478 1479 1479 1480 1480 1480 1481 1481 1482 1483 1484 1485 1486 1487 1488 1488 1489 1490 1490 1491 1492 1492 1493 1494 1494 1494 1495 1495
1469 1470 1470 1470 1470 1471 1471 1471 1472 1472 1472 1472 1472 1473 1473 1473 1474 1474 1475 1476 1476 1477 1478 1479 1480 1481 1481 1482 1483 1484 1484 1485 1486 1487 1487 1488 1489 1489 1490 1490 1490 1490 1491
1466 1466 1467 1467 1467 1467 1468 1468 1468 1468 1468 1469 1469 1469 1469 1469 1470 1471 1471 1472 1472 1473 1474 1475 1476 1476 1477 1478 1479 1479 1480 1481 1482 1483 1484 1484 1485 1485 1486 1486 1486 1487 1487
1463 1463 1464 1464 1464 1464 1464 1464 1464 1464 1464 1465 1465 1466 1466 1467 1467 1467 1468 1468 1469 1470 1471 1471 1472 1472 1473 1474 1475 1476 1476 1477 1478 1479 1480 1481 1481 1481 1482 1483 1483 1483 1483
1461 1460 1461 1461 1461 1461 1460 1460 1460 1460 1460 1460 1461 1461 1462 1463 1463 1464 1464 1465 1465 1466 1467 1467 1468 1469 1470 1471 1471 1472 1473 1474 1475 1476 1476 1477 1477 1478 1478 1479 1479 1479 1479
1458 1458 1458 1458 1457 1457 1457 1457 1457 1456 1456 1456 1457 1458 1458 1459 1459 1460 1461 1461 1462 1463 1463 1464 1465 1466 1467 1467 1468 1468 1469 1470 1471 1472 1473 1473 1474 1474 1474 1475 1475 1475 1475
1455 1455 1455 1454 1454 1454 1454 1453 1453 1454 1454 1454 1454 1454 1455 1455 1456 1457 1457 1458 1458 1459 1460 1460 1461 1462 1463 1463 1464 1465 1466 1466 1467 1468 1469 1469 1470 1470 1470 1471 1471 1471 1471
1452 1452 1452 1451 1451 1451 1451 1450 1450 1451 1451 1452 1452 1452 1452 1452 1452 1453 1453 1454 1455 1455 1456 1457 1457 1458 1459 1460 1460 1461 1462 1463 1463 1464 1464 1465 1466 1466 1466 1467 1467 1467 1467
1449 1448 1449 1448 1448 1448 1448 1448 1448 1449 1449 1449 1449 1449 1449 1449 1449 1450 1450 1451 1451 1452 1452 1453 1454 1454 1455 1456 1457 1457 1458 1458 1459 1460 1460 1461 1462 1462 1462 1463 1463 1463 1463
1446 1446 1445 1445 1445 1445 1445 1446 1446 1446 1446 1447 1447 1447 1447 1447 1447 1447 1447 1448 1448 1449 1449 1449 1450 1451 1451 1452 1452 1453 1453 1454 1455 1455 1456 1457 1457 1458 1458 1458 1459 1459 1459
1443 1442 1442 1442 1443 1443 1443 1443 1443 1444 1444 1444 1444 1444 1444 1444 1444 1444 1444 1445 1445 1445 1445 1446 1446 1446 1447 1447 1448 1448 1449 1449 1450 1451 1452 1452 1453 1453 1454 1454 1454 1454 1455
1440 1439 1439 1439 1439 1440 1440 1440 1440 1441 1441 1441 1441 1441 1442 1442 1442 1442 1442 1442 1442 1442 1442 1442 1442 1442 1443 1443 1443 1444 1444 1445 1446 1447 1447 1448 1448 1449 1449 1450 1450 1450 1451
1437 1437 1437 1436 1436 1437 1437 1437 1437 1438 1438 1438 1438 1439 1439 1439 1439 1439 1439 1439 1438 1439 1439 1439 1439 1439 1439 1439 1440 1440 1440 1441 1441 1442 1443 1443 1444 1444 1445 1445 1446 1446 1446
1434 1434 1434 1434 1434 1434 1434 1434 1434 1434 1435 1435 1436 1436 1436 1436 1436 1436 1436 1436 1435 1435 1435 1435 1435 1435 1435 1435 1436 1436 1437 1437 1437 1438 1438 1438 1439 1439 1440 1441 1441 1442 1443